FW4170 Weather Reports


time (UTC)temp
C
wind
direction
speed
KPH
gust
KPH
rain 1hr
cm
rain 24hr
cm
rain mn
cm
humidity
%
barometer
mb
20260503181005 16 67 0.0 3.2 0.00 0.00 0.00 33 1019.3
20260503180526 16 130 0.0 3.2 0.00 0.00 0.00 33 1019.4
20260503180005 16 153 0.0 3.2 0.00 0.00 0.00 31 1019.3
20260503175505 16 261 0.0 3.2 0.00 0.00 0.00 30 1019.3
20260503175006 17 267 0.0 3.2 0.00 0.00 0.00 30 1019.3
20260503174505 17 214 1.6 6.4 0.00 0.00 0.00 28 1019.2
20260503174005 17 196 1.6 6.4 0.00 0.00 0.00 27 1019.1
20260503173505 17 217 1.6 6.4 0.00 0.00 0.00 27 1019.1
20260503173026 17 197 3.2 6.4 0.00 0.00 0.00 27 1019.1
20260503172506 17 191 4.8 6.4 0.00 0.00 0.00 27 1019.2
20260503172005 18 195 4.8 6.4 0.00 0.00 0.00 26 1019.2
20260503171505 18 191 4.8 6.4 0.00 0.00 0.00 24 1019.0
20260503171005 18 190 3.2 6.4 0.00 0.00 0.00 24 1018.9
20260503170505 18 199 3.2 6.4 0.00 0.00 0.00 23 1019.0
20260503151005 19 64 6.4 12.9 0.00 0.00 0.00 22 1019.1
20260503150504 19 132 6.4 12.9 0.00 0.00 0.00 22 1019.1
20260503131004 20 55 6.4 14.5 0.00 0.00 0.00 22 1020.3
20260503130504 20 53 6.4 12.9 0.00 0.00 0.00 22 1020.3
20260503110504 19 180 9.7 17.7 0.00 0.00 0.00 25 1021.4
20260503090504 16 132 6.4 12.9 0.00 0.00 0.00 34 1022.4
20260503081504 14 49 4.8 8.0 0.00 0.00 0.00 40 1022.7
20260503081003 13 75 3.2 8.0 0.00 0.00 0.00 40 1022.8
20260503080503 13 40 1.6 4.8 0.00 0.00 0.00 41 1022.8
20260503072503 10 44 1.6 6.4 0.00 0.00 0.00 58 1023.1
20260503072003 10 40 1.6 6.4 0.00 0.00 0.00 60 1023.1
20260503071524 10 91 1.6 4.8 0.00 0.00 0.00 61 1023.1
20260503071003 10 58 1.6 4.8 0.00 0.00 0.00 61 1023.1
20260503070504 9 56 1.6 6.4 0.00 0.00 0.00 61 1023.2
20260503055007 5 193 1.6 4.8 0.00 0.00 0.00 75 1023.6
20260503054507 5 197 1.6 4.8 0.00 0.00 0.00 76 1023.6
20260503054007 5 209 1.6 3.2 0.00 0.00 0.00 77 1023.7
20260503053507 4 200 0.0 3.2 0.00 0.00 0.00 78 1023.5
20260503053028 4 205 0.0 3.2 0.00 0.00 0.00 78 1023.7
20260503052507 3 244 0.0 3.2 0.00 0.00 0.00 78 1023.6
20260503052028 3 247 0.0 3.2 0.00 0.00 0.00 78 1023.6
20260503051507 3 225 0.0 3.2 0.00 0.00 0.00 79 1023.8
20260503051007 3 211 1.6 3.2 0.00 0.00 0.00 79 1023.9
20260503050507 3 189 1.6 4.8 0.00 0.00 0.00 79 1023.8
20260503050007 3 173 3.2 4.8 0.00 0.00 0.00 79 1023.9
20260503045508 2 164 1.6 4.8 0.00 0.00 0.00 78 1023.9
20260503045007 2 157 0.0 3.2 0.00 0.00 0.00 78 1023.9
20260503044507 2 154 0.0 3.2 0.00 0.00 0.00 79 1023.9
20260503044007 2 100 0.0 3.2 0.00 0.00 0.00 79 1023.9
20260503043528 2 42 0.0 3.2 0.00 0.00 0.00 79 1023.9
20260503043007 2 39 0.0 3.2 0.00 0.00 0.00 79 1023.8
20260503042507 2 42 0.0 3.2 0.00 0.00 0.00 79 1023.9
20260503042028 2 17 0.0 1.6 0.00 0.00 0.00 79 1023.9
20260503041507 1 42 0.0 3.2 0.00 0.00 0.00 79 1023.8
20260503041007 1 23 1.6 3.2 0.00 0.00 0.00 79 1023.9
20260503040507 1 6 1.6 3.2 0.00 0.00 0.00 79 1023.8
20260503040007 1 8 0.0 3.2 0.00 0.00 0.00 79 1023.7
20260503035507 1 360 0.0 3.2 0.00 0.00 0.00 79 1023.7
20260503035007 1 360 0.0 3.2 0.00 0.00 0.00 79 1023.9
20260503034507 1 360 0.0 3.2 0.00 0.00 0.00 79 1023.8
20260503034007 1 355 0.0 3.2 0.00 0.00 0.00 79 1023.7
20260503033507 1 73 1.6 3.2 0.00 0.00 0.00 79 1023.7
20260503033007 2 103 1.6 3.2 0.00 0.00 0.00 78 1023.6
20260503032528 2 154 0.0 3.2 0.00 0.00 0.00 78 1023.6
20260503032006 2 108 0.0 3.2 0.00 0.00 0.00 79 1023.5
20260503031507 2 30 0.0 1.6 0.00 0.00 0.00 79 1023.4
20260503031007 2 33 0.0 1.6 0.00 0.00 0.00 79 1023.5
20260503030507 2 135 0.0 1.6 0.00 0.00 0.00 79 1023.3
20260503030007 2 135 0.0 1.6 0.00 0.00 0.00 78 1023.4
20260503025528 2 135 0.0 1.6 0.00 0.00 0.00 78 1023.5
20260503025027 2 135 0.0 1.6 0.00 0.00 0.00 77 1023.5
20260503024506 2 135 0.0 1.6 0.00 0.00 0.00 77 1023.3
20260503024007 2 135 1.6 3.2 0.00 0.00 0.00 77 1023.3
20260503023506 2 124 1.6 3.2 0.00 0.00 0.00 77 1023.4
20260503023007 2 64 1.6 4.8 0.00 0.00 0.00 77 1023.3
20260503022527 2 29 1.6 4.8 0.00 0.00 0.00 77 1023.3
20260503022007 2 29 1.6 4.8 0.00 0.00 0.00 78 1023.3
20260503021507 2 90 0.0 1.6 0.00 0.00 0.00 77 1023.4
20260503021006 2 0 0.0 0.0 0.00 0.00 0.00 77 1023.3
20260503020507 2 0 0.0 0.0 0.00 0.00 0.00 76 1023.4
20260503020007 2 90 0.0 1.6 0.00 0.00 0.00 76 1023.3
20260503015506 3 90 0.0 3.2 0.00 0.00 0.00 76 1023.3
20260503015006 3 90 0.0 3.2 0.00 0.00 0.00 77 1023.3
20260503014507 3 90 0.0 3.2 0.00 0.00 0.00 77 1023.3
20260503014006 3 90 0.0 1.6 0.00 0.00 0.00 77 1023.3
20260503013527 3 0 0.0 0.0 0.00 0.00 0.00 76 1023.2
20260503013007 3 90 0.0 3.2 0.00 0.00 0.00 76 1023.3
20260503012506 3 90 0.0 3.2 0.00 0.00 0.00 75 1023.2
20260503012006 3 0 0.0 0.0 0.00 0.00 0.00 75 1023.1
20260503011506 3 90 0.0 1.6 0.00 0.00 0.00 75 1023.2
20260503011006 3 90 0.0 3.2 0.00 0.00 0.00 74 1023.1
20260503010527 3 90 0.0 3.2 0.00 0.00 0.00 74 1023.1
20260503010006 3 23 0.0 3.2 0.00 0.00 0.00 74 1023.1
20260503005506 3 15 0.0 3.2 0.00 0.00 0.00 74 1023.2
20260503005007 4 21 1.6 4.8 0.00 0.00 0.00 74 1023.1
20260503004506 4 23 1.6 4.8 0.00 0.00 0.00 74 1023.2
20260503004006 4 225 0.0 4.8 0.00 0.00 0.00 74 1023.0
20260503003506 4 225 0.0 3.2 0.00 0.00 0.00 74 1023.1
20260503003006 4 225 0.0 3.2 0.00 0.00 0.00 73 1023.1
20260503002507 4 225 0.0 3.2 0.00 0.00 0.00 73 1023.1
20260503002006 5 225 0.0 3.2 0.00 0.00 0.00 73 1023.1
20260503001506 5 225 0.0 1.6 0.00 0.00 0.00 73 1023.0
20260503001006 5 225 0.0 1.6 0.00 0.00 0.00 73 1023.0
20260503000506 5 225 0.0 1.6 0.00 0.00 0.00 72 1023.0
20260503000027 5 225 0.0 1.6 0.00 0.00 0.00 72 1023.0
20260502235506 5 225 0.0 3.2 0.00 0.00 0.00 72 1023.2
20260502235006 5 225 0.0 3.2 0.00 0.00 0.00 72 1023.1
20260502234506 5 225 0.0 3.2 0.00 0.00 0.00 72 1023.1
20260502234006 5 225 0.0 3.2 0.00 0.00 0.00 72 1023.1
20260502233506 5 223 1.6 4.8 0.00 0.00 0.00 72 1023.0
20260502233027 5 195 1.6 4.8 0.00 0.00 0.00 71 1023.1
20260502232527 5 126 0.0 4.8 0.00 0.00 0.00 70 1023.0
20260502232006 6 90 0.0 1.6 0.00 0.00 0.00 70 1022.9
20260502231506 6 69 0.0 4.8 0.00 0.00 0.00 70 1023.0
20260502231006 6 46 1.6 4.8 0.00 0.00 0.00 69 1023.1
20260502230506 6 32 1.6 4.8 0.00 0.00 0.00 69 1023.1
20260502230006 6 360 0.0 3.2 0.00 0.00 0.00 64 1023.1
20260502225506 6 90 0.0 1.6 0.00 0.00 0.00 64 1023.1
20260502225006 6 90 0.0 3.2 0.00 0.00 0.00 64 1023.0
20260502224506 6 70 0.0 3.2 0.00 0.00 0.00 63 1023.1
20260502224006 7 62 1.6 3.2 0.00 0.00 0.00 63 1023.1
20260502223506 7 51 1.6 3.2 0.00 0.00 0.00 63 1023.0
20260502223006 7 22 1.6 3.2 0.00 0.00 0.00 64 1023.1
20260502222527 7 11 0.0 3.2 0.00 0.00 0.00 64 1023.0
20260502222027 7 0 0.0 0.0 0.00 0.00 0.00 64 1023.0
20260502221507 7 0 0.0 0.0 0.00 0.00 0.00 63 1023.0
20260502221007 7 0 0.0 0.0 0.00 0.00 0.00 62 1022.9
20260502220506 7 130 0.0 3.2 0.00 0.00 0.00 62 1022.9
20260502220006 7 34 0.0 3.2 0.00 0.00 0.00 61 1022.9
20260502215506 8 13 1.6 3.2 0.00 0.00 0.00 61 1023.0
20260502215006 8 45 1.6 6.4 0.00 0.00 0.00 61 1022.9
20260502214506 8 17 3.2 6.4 0.00 0.00 0.00 60 1022.9
20260502214005 8 18 1.6 6.4 0.00 0.00 0.00 60 1022.8
20260502213505 8 90 1.6 3.2 0.00 0.00 0.00 61 1022.8
20260502213005 8 90 0.0 3.2 0.00 0.00 0.00 61 1022.8
20260502212506 8 123 1.6 3.2 0.00 0.00 0.00 61 1022.8
20260502212006 8 166 1.6 3.2 0.00 0.00 0.00 61 1022.9
20260502211506 9 94 1.6 4.8 0.00 0.00 0.00 60 1022.8
20260502211028 9 52 1.6 4.8 0.00 0.00 0.00 60 1022.7
20260502210527 9 158 1.6 6.4 0.00 0.00 0.00 60 1022.8
20260502210027 10 90 3.2 6.4 0.00 0.00 0.00 59 1022.8
20260502205505 10 51 1.6 6.4 0.00 0.00 0.00 58 1022.8
20260502205006 10 152 1.6 3.2 0.00 0.00 0.00 57 1022.7
20260502204526 10 156 0.0 3.2 0.00 0.00 0.00 55 1022.7
20260502204005 10 45 0.0 3.2 0.00 0.00 0.00 53 1022.6
20260502203505 11 40 1.6 4.8 0.00 0.00 0.00 52 1022.6
20260502203006 11 41 1.6 4.8 0.00 0.00 0.00 51 1022.5
20260502202506 11 26 1.6 4.8 0.00 0.00 0.00 51 1022.5
20260502202006 11 34 1.6 6.4 0.00 0.00 0.00 48 1022.5
20260502201506 11 47 1.6 6.4 0.00 0.00 0.00 49 1022.4
20260502201006 12 31 3.2 6.4 0.00 0.00 0.00 49 1022.4
20260502200505 12 33 4.8 6.4 0.00 0.00 0.00 49 1022.3
20260502200005 12 45 3.2 6.4 0.00 0.00 0.00 50 1022.3
20260502195505 12 98 1.6 3.2 0.00 0.00 0.00 50 1022.3
20260502195006 12 180 1.6 3.2 0.00 0.00 0.00 49 1022.3
20260502194505 12 174 0.0 3.2 0.00 0.00 0.00 48 1022.3
20260502194005 13 17 1.6 6.4 0.00 0.00 0.00 45 1022.2
20260502193527 13 8 1.6 6.4 0.00 0.00 0.00 44 1022.2
20260502193005 13 357 1.6 4.8 0.00 0.00 0.00 45 1022.1
20260502192505 13 355 1.6 4.8 0.00 0.00 0.00 45 1022.0
20260502192005 13 1 3.2 6.4 0.00 0.00 0.00 45 1022.0
20260502191505 13 22 4.8 6.4 0.00 0.00 0.00 45 1021.9
20260502191005 14 42 6.4 9.7 0.00 0.00 0.00 45 1021.8
20260502190505 14 38 6.4 9.7 0.00 0.00 0.00 44 1021.9
20260502190006 14 32 4.8 8.0 0.00 0.00 0.00 44 1021.8
20260502185505 15 45 3.2 6.4 0.00 0.00 0.00 43 1021.7
20260502185026 15 52 3.2 6.4 0.00 0.00 0.00 42 1021.7
20260502184505 15 45 3.2 6.4 0.00 0.00 0.00 42 1021.7
20260502184005 15 44 4.8 9.7 0.00 0.00 0.00 42 1021.7
20260502183526 15 40 4.8 9.7 0.00 0.00 0.00 42 1021.5
20260502183005 15 37 4.8 8.0 0.00 0.00 0.00 41 1021.4
20260502182505 16 27 4.8 8.0 0.00 0.00 0.00 41 1021.3
20260502182005 16 21 3.2 6.4 0.00 0.00 0.00 41 1021.2
20260502181505 16 38 3.2 6.4 0.00 0.00 0.00 41 1021.2